Location: Eaton Estates
(41.3089°N, 82.0057°W)
Time: 09:51:01
(UTC+00:00)

USA 308 - Pass Details

Date: 01 November 2021
Orbit: 562 x 573 km, 54.0° (Epoch: 26 November)

Event Time Altitude Azimuth Distance (km) Brightness Sun altitude
Exits shadow 09:49:05 16° 4° (N) 1,511 5.1 -25.0°
Drops below altitude 10° 09:50:55 10° 29° (NNE) 1,857 5.9 -24.6°
Sets 09:53:50 0° 50° (NE) 2,755 7.2 -24.1°
